User: anonymous   Login
Location: Unspecified
(0.0000°N, 0.0000°E)
Time: 06:09:01
(UTC+00:00)
Language:

EO-79 - Orbit

View from above orbital plane
View from above orbital plane
View from above satellite
View from above satellite

Ground track
Ground track

The orbit data is extracted from the following two-line orbital elements,

1 40025U 14033R   18203.29961420 +.00000230 +00000-0 +30570-4 0  9993
2 40025 097.9037 118.6250 0013982 071.5977 288.6759 14.88741262221508
Epoch (UTC): 22 July 2018 07:11:26
Eccentricity: 0.0013982
inclination: 97.9037°
perigee height: 592 km
apogee height: 611 km
right ascension of ascending node: 118.6250°
argument of perigee: 71.5977°
revolutions per day: 14.88741262
mean anomaly at epoch: 288.6759°
orbit number at epoch: 22150

The dashed part of the orbit path shows where the satellite is in the earth's shadow,  

DLR